Theta_e
313 314 316 315 315 316 316 315 316 317 317 317 318 318 318 319 320 320 321 321 321 321 322 319 317 316 314 314 314 314 314 313 313 311 310 310 309 310 311 311 312 312 312 314 315 315 313 311 312 312 313 315 315 316 318 319 318 320 330 331 321 320 321 318 320 316 316 320 312 310 313 315 316 313 313 314 314 314 314 316 317 319 318 318 318 318 318 320
312 314 316 315 314 316 316 316 316 316 317 317 317 317 317 319 319 320 320 321 320 320 319 314 312 312 312 313 313 313 312 311 311 309 309 310 309 310 311 311 312 313 314 315 315 315 313 311 312 313 314 315 315 316 317 318 317 321 328 326 324 326 319 313 315 311 313 315 311 311 312 314 315 313 313 315 314 313 314 316 316 317 318 318 318 318 318 318
314 315 315 314 314 315 316 316 316 316 316 316 316 316 317 318 319 320 321 321 320 316 313 311 311 312 312 313 312 311 310 309 308 309 310 309 310 311 310 312 314 314 315 316 314 313 313 312 312 313 314 315 316 316 316 317 316 316 321 326 328 323 314 311 312 311 313 313 310 311 311 313 313 313 314 314 313 313 314 315 315 315 317 317 317 317 318 317
315 316 315 314 313 315 315 315 316 316 316 315 315 316 317 319 320 320 321 321 318 312 310 310 311 312 312 312 311 310 308 308 308 309 310 309 311 311 311 314 315 315 315 314 313 311 312 311 312 313 314 315 315 316 315 316 316 315 319 328 322 312 313 313 312 312 312 312 312 311 311 312 312 313 313 313 314 315 314 315 315 315 315 316 316 318 319 317
314 315 315 314 313 314 314 314 315 316 315 315 315 316 317 319 319 320 320 318 313 310 310 311 312 312 311 311 310 309 308 308 309 309 310 310 311 311 312 315 316 315 313 312 311 311 311 311 313 313 315 316 315 316 315 314 316 315 314 317 313 309 314 313 311 313 312 312 312 311 312 313 313 313 313 313 315 317 315 314 315 315 315 315 315 317 318 317
313 314 315 313 312 313 313 314 314 315 314 315 315 316 318 319 318 319 317 314 310 310 310 310 311 311 310 310 309 308 308 309 311 310 310 311 311 311 313 316 316 313 311 311 311 311 311 311 313 314 315 315 315 316 316 313 315 319 314 310 310 310 313 312 311 313 311 312 312 311 313 313 312 312 312 313 314 315 314 314 315 315 315 315 315 316 317 316
313 314 314 313 312 312 312 313 313 313 313 314 314 315 317 317 316 315 313 310 310 310 310 310 310 310 309 309 309 308 308 309 312 312 311 311 311 312 314 316 315 312 310 311 312 312 312 312 313 314 315 315 314 314 315 314 313 319 317 310 311 311 311 312 312 311 311 313 312 312 313 312 313 313 311 312 314 314 314 314 314 314 315 315 315 315 316 316
313 314 313 311 311 311 312 313 313 312 311 312 312 313 313 313 312 311 310 310 310 310 309 310 310 309 309 308 308 309 309 309 311 313 312 311 312 313 316 315 313 311 311 312 312 312 312 312 313 314 314 313 315 313 313 314 313 317 317 311 311 311 311 311 311 311 311 312 312 313 312 311 312 312 311 313 314 314 314 314 314 314 314 315 315 315 315 315
313 313 312 310 310 311 312 313 313 311 309 310 310 309 309 309 309 309 309 309 309 309 309 310 309 309 309 308 309 309 310 309 311 313 312 312 312 314 316 314 311 311 311 313 313 312 312 312 314 314 313 311 314 313 312 315 314 314 314 311 311 311 311 311 311 311 311 312 312 312 311 311 311 311 312 313 314 314 314 314 314 314 314 315 315 314 315 315
314 313 311 310 310 311 312 312 312 311 309 309 308 308 309 309 309 309 309 309 309 309 309 309 309 309 308 309 309 309 310 309 310 313 313 313 312 314 316 312 310 311 311 313 313 313 313 313 314 314 313 313 313 312 311 314 315 313 311 311 311 311 311 312 312 312 312 312 311 313 312 311 311 312 314 314 313 314 314 314 314 314 314 315 315 314 315 314
314 312 310 310 310 310 311 311 311 310 309 309 308 308 309 308 309 309 309 309 309 309 309 309 308 308 308 309 309 309 311 310 310 313 313 314 315 315 315 311 311 311 311 313 313 313 313 313 314 313 314 314 312 311 311 312 313 312 312 313 311 310 312 311 312 312 312 313 312 313 312 310 311 313 315 313 313 314 314 315 314 314 314 314 315 314 314 315
313 312 310 310 309 309 310 310 311 310 309 309 308 309 308 309 309 309 309 309 309 309 309 309 308 308 308 309 309 309 312 312 312 314 314 316 317 315 312 311 311 310 311 313 313 313 313 314 314 313 314 313 312 312 312 312 312 312 313 316 315 314 314 311 311 311 312 313 312 311 312 313 313 314 315 313 313 314 314 314 314 314 314 314 315 314 314 315
312 311 310 309 309 308 310 310 310 309 309 309 308 309 309 309 309 309 309 308 309 309 309 309 309 308 308 309 309 309 311 312 314 314 314 317 316 312 310 310 310 310 311 312 313 313 313 314 314 314 313 312 312 312 313 311 311 313 311 315 317 317 316 310 310 312 311 313 311 310 312 317 316 311 312 313 313 314 314 314 314 314 314 314 315 315 315 315
311 310 309 309 308 308 309 309 309 309 309 309 309 309 309 309 309 309 309 309 309 309 309 309 309 308 308 310 310 309 310 313 315 314 315 316 314 310 309 310 311 311 311 312 313 312 313 313 313 314 312 313 312 311 315 312 313 315 310 315 319 316 317 312 308 311 312 312 311 310 313 317 317 311 309 312 312 313 314 314 314 314 314 315 314 314 315 315
311 310 309 309 308 308 308 309 309 309 309 309 309 309 309 308 309 309 309 309 309 309 309 309 308 308 309 309 310 310 309 313 315 314 315 316 312 310 311 311 311 311 312 313 313 313 314 313 313 313 311 313 312 313 318 317 318 318 311 318 317 313 317 315 308 309 313 312 310 311 314 317 316 311 310 312 312 313 313 313 314 314 314 314 315 314 315 315
311 310 309 308 308 307 308 308 309 309 309 309 309 308 308 308 308 309 309 309 309 309 309 309 308 308 309 309 310 311 311 313 315 314 315 315 312 311 312 312 312 313 313 313 314 314 314 313 313 312 311 312 314 316 319 318 321 319 315 320 317 313 316 314 310 307 309 311 311 311 314 318 316 311 311 312 313 313 313 314 314 314 315 314 314 315 314 315
311 310 309 308 308 307 307 308 309 309 309 309 309 308 308 308 308 308 308 308 308 309 308 308 308 308 309 309 312 313 313 314 314 313 315 314 312 312 312 314 314 314 313 314 314 313 313 313 311 312 312 310 313 318 317 315 317 317 317 319 316 315 315 313 314 309 306 311 313 312 313 318 316 310 312 313 312 313 313 314 315 315 315 315 315 314 314 315
311 311 310 308 308 307 307 308 308 309 309 309 308 308 308 308 308 308 307 307 308 308 308 309 308 310 310 309 312 313 313 314 313 313 314 313 313 313 313 315 315 314 314 313 313 314 313 311 311 316 316 311 313 317 317 316 316 316 318 316 313 314 313 313 317 311 309 313 314 315 314 317 317 311 312 313 312 313 314 314 315 315 316 316 316 315 315 315
311 310 310 309 308 307 307 307 307 308 309 308 308 308 307 307 307 307 306 307 308 309 310 310 309 312 313 309 311 314 314 313 313 313 313 313 314 314 315 315 314 314 313 313 314 313 313 312 313 317 316 314 314 315 318 320 319 319 319 319 320 320 316 314 316 309 308 314 316 317 317 317 318 315 313 313 312 312 313 315 315 315 316 316 316 316 316 316
312 311 310 309 308 307 307 306 307 308 307 308 308 307 307 308 310 310 308 307 309 309 310 310 309 312 312 309 311 313 313 313 313 313 314 314 314 315 315 314 314 314 314 316 316 312 313 316 315 316 315 315 314 313 316 317 317 318 318 321 322 321 318 314 315 309 305 314 318 317 319 317 317 317 313 312 311 309 312 313 315 316 316 316 316 316 316 316
313 312 310 309 309 308 307 306 307 307 307 308 307 308 308 309 311 312 309 309 310 310 310 309 309 312 311 310 312 313 313 313 313 314 314 314 315 315 314 314 314 315 313 313 314 312 314 317 318 317 313 312 313 314 315 315 316 318 317 320 318 318 319 314 314 312 306 312 318 315 319 318 318 318 312 310 310 309 311 311 312 314 314 314 315 315 315 315
314 313 311 310 309 308 307 306 307 307 307 307 307 308 308 308 310 309 308 309 310 310 311 309 309 312 311 311 313 313 313 314 314 314 314 314 315 315 313 314 315 315 312 311 314 315 315 319 320 313 306 308 312 315 318 318 320 321 317 317 318 317 318 313 312 313 308 312 319 318 319 318 317 317 312 307 308 309 310 310 310 311 312 312 313 313 313 313
314 314 312 310 309 308 307 306 307 307 307 307 308 308 308 309 310 308 308 309 310 310 311 310 309 311 312 312 313 313 313 314 314 314 314 314 314 314 313 313 316 317 314 314 317 317 316 319 315 305 303 311 315 316 318 318 319 321 318 318 318 316 318 317 314 313 311 311 316 317 317 317 317 319 315 305 304 308 307 308 309 309 310 310 311 311 312 313
316 315 314 312 309 308 307 307 307 307 307 307 308 308 308 310 310 308 308 309 310 311 310 310 310 310 312 313 312 312 312 313 314 314 314 314 314 314 313 312 315 316 314 315 315 316 316 311 305 302 308 315 315 314 318 320 318 317 322 327 324 319 319 318 314 314 313 310 311 314 316 322 323 325 322 309 304 307 307 309 311 310 311 312 312 312 312 313
315 315 314 313 310 307 307 308 308 307 307 308 308 308 308 310 309 308 308 309 310 310 310 310 311 311 311 312 313 312 312 312 314 314 314 314 314 313 312 311 313 315 315 315 314 316 314 305 303 308 312 315 315 316 319 321 319 315 322 329 326 324 322 317 315 317 318 314 310 310 315 326 329 327 324 315 312 312 308 308 311 312 314 314 314 313 312 313
313 313 313 313 310 308 308 309 309 307 307 308 308 308 309 309 309 307 309 313 311 308 309 311 311 312 312 313 313 311 312 313 313 315 314 314 314 313 313 312 311 313 314 313 312 315 311 304 307 312 313 315 315 315 316 318 320 316 316 318 320 324 324 320 318 317 319 315 308 308 315 321 323 324 322 316 317 317 310 308 310 312 314 314 314 314 313 315
310 310 311 311 309 307 309 309 308 307 308 308 308 308 309 309 309 307 309 313 313 309 309 310 309 311 313 313 313 311 313 314 313 314 314 314 314 313 314 314 312 312 310 311 314 313 309 308 310 313 315 316 315 315 314 315 319 316 313 314 320 323 323 323 322 320 320 314 311 315 317 315 317 321 320 313 314 316 314 311 310 310 312 313 314 315 315 315
310 310 310 310 308 307 308 308 307 307 308 308 308 308 309 309 308 308 310 311 312 310 308 309 308 311 313 312 312 311 313 314 314 315 313 314 313 312 315 314 315 317 308 309 316 312 309 314 314 314 318 316 315 316 313 316 320 316 309 312 318 320 323 327 326 325 319 312 316 320 313 312 320 323 320 314 312 314 314 313 311 309 311 313 313 314 315 315
309 309 309 308 309 308 309 309 307 307 308 308 308 308 309 309 307 310 312 310 309 309 308 309 310 311 312 311 311 311 311 312 314 315 313 313 313 312 315 311 311 316 309 310 319 313 309 313 311 313 318 316 315 313 310 319 322 311 305 310 314 316 321 323 323 323 319 316 322 319 309 311 319 325 324 315 311 314 313 312 311 309 310 312 313 314 314 315
308 308 309 309 310 310 310 309 307 307 309 308 308 309 308 309 308 309 310 311 310 309 307 308 310 312 312 311 311 311 312 312 312 313 312 312 313 311 313 311 310 318 317 315 319 314 308 309 309 311 314 312 310 308 307 313 312 306 310 315 315 319 323 322 321 319 317 321 323 313 308 310 313 322 325 314 311 315 314 313 311 309 311 311 312 313 313 314
310 310 311 312 312 311 311 308 307 308 309 308 309 309 308 310 311 309 308 311 313 309 307 308 310 311 312 312 313 312 312 312 310 313 313 312 313 311 312 312 313 319 321 319 318 314 311 311 311 309 309 307 309 310 307 305 305 310 321 321 316 321 323 322 324 318 316 325 320 309 308 311 311 318 318 312 313 314 313 314 312 310 310 311 312 313 312 313
312 311 311 312 312 312 311 308 307 309 308 308 309 308 309 310 309 309 308 310 313 310 309 310 309 311 313 313 315 314 315 314 310 312 316 314 314 313 313 316 318 318 317 317 318 316 315 315 311 309 308 309 314 316 310 309 312 315 320 320 319 321 318 322 326 318 317 321 313 307 309 310 312 317 314 313 316 311 307 309 310 309 310 311 312 312 312 313
313 312 311 311 312 312 311 308 309 309 308 309 309 309 313 311 308 310 310 310 311 309 310 312 310 312 313 313 314 314 315 314 312 312 313 314 314 313 313 316 318 319 318 318 319 317 318 318 313 312 312 310 314 317 314 315 317 314 315 319 322 321 315 317 319 313 315 316 308 306 309 311 314 315 314 316 313 308 305 307 309 310 310 311 311 312 313 313
314 314 312 311 311 312 311 309 310 310 309 309 309 309 313 311 309 312 311 309 310 310 311 313 312 311 312 313 314 314 314 313 312 313 313 314 314 314 315 313 314 322 322 318 318 318 319 319 316 315 313 311 313 315 316 317 315 314 315 315 318 324 322 319 319 320 321 316 309 307 310 318 318 311 311 311 306 305 307 308 310 310 311 312 311 312 313 313
315 315 313 312 312 313 312 310 311 310 309 309 308 309 311 310 311 313 309 309 312 312 312 311 311 312 312 314 313 312 314 314 312 313 314 314 314 314 315 312 313 321 322 316 315 317 316 316 315 310 308 311 314 312 313 316 316 314 313 312 315 320 321 316 312 317 318 313 311 310 313 320 315 307 308 306 303 305 305 307 310 310 311 312 311 312 313 313
315 314 313 312 313 314 312 310 311 311 310 308 308 309 310 310 315 314 308 309 312 311 311 311 312 314 313 313 314 311 312 315 313 314 314 314 314 314 314 313 312 315 317 317 318 317 315 314 313 311 309 310 311 309 308 312 315 314 312 314 316 313 315 314 306 306 309 311 313 312 314 318 313 309 312 308 307 307 305 307 309 310 312 312 311 312 313 313
315 314 313 313 314 314 313 311 311 311 310 308 308 310 310 309 313 314 310 309 311 310 312 312 312 313 313 312 315 313 312 315 314 314 314 313 314 314 314 314 312 311 314 315 318 318 317 314 312 313 314 309 307 307 306 306 310 315 316 315 311 307 313 317 312 312 312 313 318 314 312 317 315 314 315 311 311 310 308 307 306 308 312 311 311 312 312 313
314 314 314 314 313 313 314 312 311 311 309 308 310 312 313 311 309 311 310 307 309 312 313 313 312 312 312 312 314 313 313 315 314 314 314 313 314 314 314 313 311 311 310 310 313 316 319 318 311 310 315 311 307 310 311 307 306 312 315 310 310 314 316 313 312 318 315 311 320 318 310 311 312 316 316 312 313 313 310 309 308 308 311 310 311 312 312 314
312 313 313 314 313 313 314 314 312 311 310 309 311 311 314 314 309 308 309 306 311 314 312 314 314 311 312 312 313 312 312 313 313 314 314 313 313 313 312 313 312 309 307 309 313 314 317 322 314 309 312 312 311 313 316 314 309 308 308 306 312 322 320 313 311 317 315 310 317 318 313 314 314 315 318 313 313 312 310 312 310 308 310 311 311 311 312 313
311 311 311 313 314 314 314 314 312 312 311 310 312 311 311 313 310 308 308 308 312 312 312 316 315 312 313 312 312 312 312 313 312 313 314 312 312 311 310 312 313 310 306 307 312 314 314 319 316 312 311 313 316 316 315 316 312 309 310 310 313 315 313 313 312 312 315 315 318 316 317 325 320 311 314 315 311 309 310 312 310 308 311 311 310 312 313 313
309 310 309 311 315 315 314 315 313 312 311 311 313 313 311 311 311 309 309 309 310 310 311 316 314 314 315 313 311 312 312 314 312 313 314 311 311 312 310 311 311 310 308 307 313 317 315 315 316 315 314 315 316 313 310 313 312 310 311 311 313 313 313 315 313 310 312 313 317 314 313 325 322 309 312 314 307 305 307 309 308 308 311 311 310 312 312 313
307 309 309 310 314 314 314 315 313 310 312 312 312 312 311 311 311 311 310 309 312 311 310 314 316 317 316 312 312 312 312 314 312 313 315 313 312 312 310 309 309 309 311 312 313 313 312 316 319 317 316 315 312 306 302 307 311 310 311 312 313 313 315 319 317 314 310 306 310 312 311 321 321 305 304 306 301 301 306 307 308 309 310 311 311 312 312 313
305 307 308 309 312 313 313 315 313 311 312 311 310 310 310 310 310 311 311 311 312 313 312 315 315 314 314 312 312 313 312 313 312 312 315 313 311 311 308 309 309 309 311 313 313 310 310 318 319 316 317 315 312 308 304 306 311 311 313 314 313 313 315 320 321 318 314 309 311 311 311 325 323 302 297 301 299 302 306 307 308 309 310 311 311 312 313 313
303 305 306 308 310 311 312 314 313 313 311 309 311 311 309 309 310 311 314 313 312 314 317 318 312 308 313 314 312 313 312 312 313 312 314 314 310 307 307 308 310 311 310 312 313 311 312 318 317 315 317 316 315 315 312 312 312 314 317 315 313 314 314 313 313 314 315 315 315 314 316 326 322 305 300 302 301 302 305 307 308 309 310 311 311 312 312 312
303 304 305 306 307 308 309 310 311 312 311 310 313 313 311 310 309 310 313 312 310 312 316 315 310 311 316 313 311 312 312 313 314 312 313 313 309 307 307 307 308 310 310 311 311 311 315 319 316 315 316 315 315 316 315 316 314 314 318 315 312 314 312 312 314 313 315 315 313 315 320 320 314 309 309 307 305 306 306 306 308 309 310 311 311 312 312 312
304 305 305 305 305 306 306 306 308 310 311 312 312 312 313 313 310 309 311 312 310 310 312 311 309 313 316 312 311 312 310 312 314 313 313 313 311 309 308 307 307 307 309 310 309 312 319 318 313 314 314 312 314 315 316 318 316 315 316 314 312 311 311 316 319 315 314 314 311 315 321 316 311 311 310 309 311 311 307 306 308 309 310 312 311 311 312 312
303 305 304 304 305 304 304 305 307 309 310 311 312 311 312 313 312 311 311 310 311 311 311 311 311 314 315 312 313 313 310 312 312 311 313 313 312 310 308 307 307 307 309 308 307 314 320 315 312 315 313 313 319 319 316 317 317 315 316 314 312 312 312 315 317 313 314 314 311 314 317 314 312 313 311 310 313 311 306 306 308 309 310 312 311 311 311 311
301 302 302 303 305 304 304 305 306 308 309 310 312 311 311 312 313 313 312 310 310 311 312 313 313 315 315 312 313 314 312 312 312 312 312 313 313 313 311 308 307 307 309 308 307 313 318 314 313 314 312 313 319 318 315 316 316 315 316 315 313 312 312 313 314 313 313 313 312 313 314 312 314 314 311 309 310 309 307 308 309 310 311 312 311 311 311 311
299 300 300 302 303 303 304 305 305 307 309 310 311 311 311 312 312 313 312 312 313 312 312 315 316 316 316 314 315 316 313 312 313 314 313 313 314 316 315 313 310 307 309 310 308 309 314 317 316 312 310 311 314 314 313 314 314 314 314 314 312 312 312 312 313 312 312 312 313 315 315 313 314 313 310 308 307 307 308 309 310 310 311 311 311 311 311 310
299 299 300 301 302 301 303 305 306 306 308 309 310 310 310 311 312 313 312 313 316 314 311 314 317 316 315 315 316 318 315 315 316 316 314 315 315 315 316 317 313 308 309 311 310 307 310 316 315 311 310 312 312 312 312 312 313 314 313 312 311 311 311 311 312 312 311 311 313 315 316 314 312 309 307 307 306 306 307 308 309 310 311 311 311 311 310 310
299 299 299 301 301 301 303 305 305 306 308 308 309 309 310 311 311 312 312 311 313 315 312 313 317 315 312 313 315 316 314 314 316 314 312 313 314 314 314 314 312 312 311 311 312 311 310 313 314 312 312 313 310 310 311 310 310 312 313 313 311 311 311 311 311 312 312 311 312 313 313 313 311 308 306 306 305 304 305 307 309 310 311 311 311 310 310 310
299 299 299 300 301 301 302 304 305 306 307 307 308 309 309 310 310 311 313 311 310 313 312 312 314 316 314 314 315 314 311 310 312 311 310 311 311 311 312 310 309 312 313 312 315 316 314 316 316 313 314 314 308 308 312 311 310 312 312 312 311 310 311 310 310 312 312 311 313 312 310 312 312 310 310 309 306 304 306 308 309 310 310 310 311 310 310 310
Wind_Speed
25 26 26 25 28 25 23 24 24 24 25 25 26 28 29 29 29 28 27 27 25 24 24 23 23 22 22 22 20 17 17 18 19 21 23 22 19 18 14 14 14 13 17 18 18 16 16 16 15 14 13 11 9 11 10 7 7 5 3 3 2 3 3 5 7 7 4 1 5 10 13 10 3 5 6 4 5 5 9 11 8 11 11 7 4 5 15 22
26 28 26 26 28 25 23 25 25 23 23 25 26 28 29 30 30 29 29 28 26 25 24 24 24 24 24 23 21 20 19 18 19 23 24 19 18 18 15 14 14 15 18 18 17 15 17 18 17 16 14 11 8 10 9 6 6 4 3 3 3 5 4 5 7 8 4 2 8 11 11 11 5 7 8 3 4 4 6 9 8 11 13 11 7 5 13 21
27 27 26 26 28 26 24 25 24 22 23 25 27 28 30 30 30 30 29 28 27 25 25 25 25 25 24 23 21 19 17 16 19 24 22 18 18 17 15 16 16 17 17 16 15 14 16 17 17 17 15 10 7 9 7 5 4 2 4 2 4 6 3 3 5 7 4 1 8 12 10 10 6 8 9 4 3 3 6 10 10 12 13 12 10 8 12 19
27 27 26 26 28 27 24 24 24 22 24 26 27 29 30 30 30 29 28 27 26 25 25 26 26 25 23 21 19 16 14 12 17 24 20 18 19 16 16 18 17 16 16 15 14 14 15 17 18 17 13 8 6 8 6 4 4 2 4 2 4 5 3 3 4 4 4 3 8 12 9 7 6 9 10 6 2 4 10 14 14 13 10 11 12 11 12 18
28 27 25 24 27 27 23 24 23 23 25 27 27 29 30 30 29 28 28 27 26 25 26 26 25 25 22 20 17 14 11 5 11 20 18 18 18 17 19 20 17 15 16 15 15 17 17 18 19 16 10 6 6 6 3 4 5 3 2 1 3 5 3 2 3 4 6 5 9 12 8 7 8 8 10 10 5 5 8 11 13 13 10 9 10 12 13 16
28 28 26 23 26 27 24 22 22 24 26 27 28 29 30 29 29 28 27 27 26 26 25 25 25 23 20 18 16 14 13 4 4 13 17 18 18 18 20 20 16 14 15 16 17 18 19 20 19 15 9 5 5 4 4 6 5 3 1 1 5 4 3 2 2 4 7 8 11 12 8 8 10 6 8 13 14 10 5 5 6 10 11 10 10 11 13 15
27 25 24 22 25 26 24 22 22 24 26 28 29 29 29 29 29 28 28 28 27 26 25 25 23 21 19 17 16 14 18 11 3 8 17 17 19 20 19 18 16 15 17 17 19 19 21 22 19 16 11 5 4 4 6 7 4 3 1 2 5 3 4 3 2 5 5 8 10 11 9 7 9 6 5 13 18 16 11 7 4 5 8 12 12 11 12 13
25 23 23 22 24 25 24 22 21 24 27 28 28 28 29 29 29 29 29 29 28 26 24 24 21 20 19 17 17 13 18 17 4 5 16 18 20 21 18 17 17 17 18 18 19 20 21 22 21 17 8 3 7 7 8 7 2 2 3 4 6 4 5 6 4 6 5 7 8 8 6 4 6 5 5 12 15 13 15 16 12 9 7 11 14 12 12 13
24 22 22 22 24 25 24 22 21 24 26 28 28 29 29 29 30 29 30 29 27 25 23 23 20 20 19 18 18 10 14 21 8 4 15 19 20 21 18 17 18 18 19 19 17 18 19 21 22 16 7 7 10 9 10 7 1 2 6 7 8 5 5 6 6 7 6 7 7 6 3 1 3 3 7 13 13 12 15 15 16 15 11 10 14 14 13 13
23 22 22 22 24 26 25 23 21 23 26 28 29 29 29 30 30 30 30 28 26 24 22 22 20 20 19 19 16 7 12 20 11 7 15 20 21 21 18 17 18 18 19 19 17 16 17 19 19 15 10 11 11 8 9 6 2 8 12 11 9 7 6 5 6 7 7 6 4 5 2 1 3 1 5 7 5 7 11 13 14 15 14 11 13 16 15 13
23 22 22 22 24 26 26 25 23 23 26 27 28 29 30 30 30 30 29 27 24 22 21 20 19 19 20 20 16 8 10 14 12 10 16 20 20 19 17 17 18 17 18 19 17 14 13 16 18 14 8 9 11 7 6 6 7 13 16 11 7 7 7 5 5 6 5 4 2 3 2 1 3 2 5 6 4 5 5 11 12 13 13 11 11 15 17 15
22 22 22 21 22 25 26 25 24 24 26 27 28 29 30 30 29 29 27 24 22 21 20 19 18 19 20 19 18 14 9 9 11 11 17 20 18 17 16 17 17 16 16 17 17 14 11 17 18 11 8 13 11 5 6 9 10 11 10 5 5 5 6 6 4 3 2 2 2 3 1 3 2 6 7 5 7 7 6 8 10 12 13 13 12 13 16 17
21 22 22 21 22 24 25 26 26 25 26 27 28 30 30 29 28 27 25 23 21 20 19 18 18 19 19 15 16 17 10 8 10 11 17 19 16 17 17 18 17 15 15 15 15 14 12 17 16 10 15 16 7 7 10 9 10 7 4 4 3 5 4 5 5 2 2 2 1 3 1 5 6 9 7 5 6 6 7 8 9 11 13 15 14 14 15 16
20 22 23 23 23 24 25 26 26 24 25 27 28 29 28 27 26 25 23 21 20 19 18 18 17 18 18 11 9 16 14 10 10 12 18 19 17 18 17 17 17 15 15 14 14 14 13 16 15 12 15 13 12 14 9 6 6 3 3 2 2 1 4 5 5 3 2 2 1 4 1 5 7 7 4 8 9 7 9 9 8 10 12 15 16 16 17 17
20 22 24 24 25 26 26 26 26 25 25 26 27 27 26 26 24 24 22 20 19 18 17 18 17 17 14 8 6 12 16 13 11 13 18 19 18 18 17 17 16 15 15 14 14 14 14 14 13 12 12 15 18 13 4 4 4 3 2 1 2 3 5 6 5 4 2 2 1 5 2 6 8 7 1 3 5 4 8 9 9 10 11 13 16 17 18 18
19 21 24 25 26 27 26 26 26 26 25 25 25 24 23 23 23 23 21 19 18 17 17 16 18 16 8 5 7 10 14 14 12 15 18 19 17 17 17 17 16 16 16 15 13 15 16 14 13 14 12 13 11 6 5 4 4 4 2 2 2 3 2 4 3 5 4 1 1 2 2 3 3 4 2 3 1 2 5 7 7 9 10 12 15 17 19 19
18 20 22 25 26 26 27 27 27 27 25 25 23 21 20 20 21 21 19 18 17 16 17 15 17 15 5 5 8 10 15 15 14 16 18 19 17 16 18 17 16 16 17 16 14 15 15 12 12 10 6 5 3 5 6 1 2 2 2 2 2 3 2 2 2 5 6 1 1 3 1 6 5 7 7 6 7 10 11 12 11 10 11 11 12 15 17 20
18 19 20 23 25 26 26 26 27 27 25 24 21 19 18 18 19 19 19 20 19 17 14 14 16 10 5 9 9 9 16 15 15 17 17 18 16 16 19 18 16 17 18 15 11 11 10 7 8 5 3 4 2 5 5 4 5 5 3 3 2 2 3 3 2 2 6 2 1 2 2 9 9 12 17 16 11 13 15 15 15 15 15 14 13 14 15 18
17 19 20 22 24 26 26 26 27 27 26 24 22 22 20 19 18 17 21 23 20 13 7 15 19 5 2 13 13 10 15 16 16 18 18 18 17 17 17 17 18 19 17 10 5 7 7 6 6 5 3 3 5 6 7 7 8 9 6 5 5 3 4 4 4 3 2 2 2 3 4 8 9 10 18 20 12 11 15 16 17 17 16 16 16 17 17 18
15 17 20 20 22 26 26 27 27 27 28 26 27 27 22 20 14 10 20 22 15 8 3 18 25 4 3 14 17 13 16 17 16 18 19 19 19 19 17 17 17 14 10 6 4 4 5 5 4 5 7 8 7 6 6 5 7 8 7 5 4 4 2 3 4 4 2 3 3 3 3 8 10 9 17 22 13 11 17 18 19 19 18 19 19 20 20 21
13 14 18 18 20 24 25 28 27 29 30 27 32 27 20 22 11 9 20 13 8 8 5 19 26 5 2 13 19 18 17 14 15 20 19 20 22 18 14 14 10 5 2 4 6 3 4 5 6 6 7 8 7 7 8 7 7 6 6 5 2 2 2 2 2 3 2 1 2 1 3 8 10 9 16 19 11 11 16 16 17 19 20 21 22 23 23 23
14 13 16 17 19 22 24 28 27 31 31 30 35 25 20 25 14 17 24 8 6 8 5 18 25 7 3 12 18 19 16 10 12 19 20 22 23 14 11 9 6 4 1 4 7 4 3 4 7 6 8 10 7 6 9 8 7 6 4 5 2 2 2 2 3 4 4 1 2 3 4 8 10 9 13 14 11 13 14 13 15 17 19 20 19 19 20 20
14 13 14 15 19 21 24 28 29 33 34 34 34 22 21 22 11 20 24 9 7 5 4 14 22 12 6 12 17 16 12 8 10 17 19 23 20 14 13 9 5 5 3 4 7 6 5 5 5 9 12 11 7 5 10 8 5 4 4 5 3 2 2 1 2 4 3 2 1 2 2 7 7 6 7 6 7 9 9 8 9 9 12 13 11 12 13 12
14 14 14 14 18 22 24 28 31 34 34 35 30 21 23 20 13 22 18 7 5 3 3 11 16 15 8 10 15 12 9 9 11 17 19 21 18 13 13 9 6 6 3 5 8 7 4 4 4 11 8 9 8 4 8 7 3 1 3 6 4 4 4 3 1 1 2 3 2 2 3 5 4 5 5 3 5 8 8 6 5 5 4 6 6 8 9 9
17 16 15 15 18 22 25 26 30 35 34 33 27 21 24 20 17 22 12 6 3 2 4 7 9 12 9 9 13 12 9 8 11 18 19 19 17 12 9 7 6 4 3 6 8 5 2 1 7 10 4 7 9 4 5 7 4 0 4 6 6 8 6 2 2 3 3 3 3 4 3 4 4 5 6 4 7 8 8 11 12 12 10 7 5 3 3 4
20 18 17 18 19 24 26 23 29 35 33 31 26 23 25 21 21 19 7 5 1 1 4 6 5 9 11 10 13 13 7 4 10 18 19 17 15 12 8 4 3 3 5 6 5 2 1 2 5 7 6 7 7 5 6 6 6 2 4 5 7 8 9 7 5 4 2 1 2 4 3 3 6 6 6 4 6 7 7 9 12 15 15 13 11 10 9 8
20 20 20 19 21 28 28 24 31 37 33 29 26 25 25 24 23 16 4 5 1 4 6 5 5 8 11 11 15 12 4 5 11 14 16 15 12 11 9 3 3 3 4 5 3 1 3 3 3 6 7 6 6 5 6 7 8 3 3 6 8 9 8 7 6 4 1 2 2 4 4 1 4 6 6 4 3 6 7 6 10 15 16 16 15 15 16 16
21 21 21 21 25 31 27 25 34 38 33 28 27 26 25 27 23 11 5 3 2 4 5 4 5 9 12 15 16 9 6 11 9 7 14 14 10 8 5 4 6 5 1 4 4 2 3 5 5 6 6 4 5 4 5 8 6 3 3 6 7 8 7 5 6 4 1 1 2 5 4 1 5 6 6 4 1 4 5 4 7 12 15 16 16 16 18 19
22 23 24 26 28 29 23 22 33 36 30 27 26 26 26 27 17 5 4 3 2 4 4 6 7 8 12 13 9 5 7 7 4 7 13 12 8 5 4 6 10 8 5 5 5 1 1 4 6 6 5 4 3 2 1 4 3 5 6 7 7 7 6 5 5 4 3 2 3 4 3 1 4 6 4 3 0 3 3 2 5 9 14 16 18 20 21 22
22 26 29 30 28 26 19 19 29 32 29 28 26 28 29 22 10 4 2 4 3 3 3 7 6 7 11 8 2 3 4 2 4 11 11 7 7 6 9 10 11 8 5 7 5 1 1 1 2 2 3 6 5 5 5 3 8 12 8 7 7 6 5 4 3 3 4 2 5 4 2 0 2 5 4 2 2 4 4 0 4 9 15 17 19 23 25 27
23 28 30 29 27 23 19 23 31 31 30 28 26 30 26 12 4 3 4 3 4 2 2 4 3 6 12 8 3 2 3 3 4 10 7 4 6 7 9 8 5 6 4 4 4 4 3 3 1 1 5 8 8 7 8 6 8 8 4 5 5 4 4 4 4 4 3 4 5 4 2 1 3 4 2 3 4 4 6 5 5 8 13 17 20 23 27 29
23 24 26 26 25 21 20 27 32 31 30 28 29 30 18 5 2 4 3 4 4 3 4 4 2 5 9 6 4 3 3 2 2 5 5 3 4 4 4 4 4 4 1 3 2 3 3 1 2 1 4 6 6 6 5 4 3 4 5 6 5 2 2 2 3 1 2 5 4 2 1 1 5 6 5 6 6 6 7 5 3 6 10 15 18 23 26 28
23 22 23 23 21 18 19 26 30 30 31 30 29 22 8 3 7 5 3 3 2 2 4 5 3 5 9 7 3 3 3 2 3 2 2 3 4 3 1 2 6 5 3 5 4 2 0 3 2 3 2 5 4 6 4 2 1 4 6 6 4 3 3 1 3 1 3 4 2 3 2 1 4 6 7 9 7 6 7 5 1 3 8 12 16 22 25 27
25 24 23 21 18 15 19 27 29 29 32 31 23 11 5 5 6 3 5 5 1 2 3 5 7 7 7 5 4 5 3 1 3 3 2 3 5 5 3 3 3 5 4 4 3 5 3 3 3 2 2 4 3 3 6 5 4 2 2 5 5 5 4 4 4 3 3 2 2 3 2 3 3 2 5 7 7 6 5 6 5 5 7 11 16 21 24 26
26 26 22 19 17 14 19 28 29 27 33 29 14 5 7 8 4 3 6 5 1 2 3 4 9 9 4 2 0 4 2 1 3 4 3 4 6 7 6 5 5 4 6 5 2 2 4 3 3 2 1 4 3 2 4 7 3 2 1 5 3 4 5 4 3 5 4 1 1 2 3 4 3 3 5 6 6 3 5 9 10 10 10 14 17 20 23 25
27 27 22 20 19 15 19 29 27 27 32 23 8 5 7 5 3 4 6 5 4 6 7 5 4 5 3 2 0 4 0 2 3 3 3 3 3 5 5 4 6 5 5 6 3 2 3 1 4 4 3 3 1 1 2 3 3 2 2 3 4 4 8 6 2 1 3 2 2 1 3 5 3 3 5 2 2 2 4 9 13 13 16 18 18 20 23 23
28 27 23 22 20 16 19 26 26 27 27 15 6 7 3 1 3 4 5 7 9 10 10 5 1 3 6 4 4 7 3 3 3 3 3 3 2 5 6 4 6 8 5 4 3 3 5 2 3 2 3 3 2 4 6 6 3 4 3 5 4 3 5 5 2 3 4 1 3 1 3 4 1 2 4 2 6 2 2 8 12 15 19 19 18 19 22 22
24 26 23 22 21 18 19 22 23 25 19 8 5 5 1 1 1 1 4 8 10 8 7 6 3 2 6 6 5 8 6 4 5 4 4 3 4 6 9 5 5 10 9 4 2 2 5 3 2 2 2 2 3 4 4 6 6 3 5 5 4 3 2 2 3 2 1 2 3 3 3 3 3 4 3 4 9 5 4 7 9 13 19 19 17 18 21 21
19 19 17 19 23 21 19 19 21 21 13 6 6 4 1 2 0 0 5 7 7 5 5 5 3 1 4 6 6 7 7 7 8 5 4 4 4 5 10 7 3 8 11 7 3 2 4 4 1 1 1 1 3 1 5 1 4 4 3 3 2 2 4 2 2 4 3 3 2 3 3 3 6 6 6 10 10 9 9 7 7 15 21 19 18 19 20 20
15 10 8 14 23 23 20 18 17 15 8 4 6 3 0 2 2 1 5 5 3 3 3 5 3 4 4 3 4 6 5 5 8 6 4 5 5 4 7 8 5 6 8 5 3 2 3 3 3 1 3 1 1 2 6 6 3 3 3 4 2 2 2 2 1 2 4 4 3 2 3 5 6 4 7 9 8 9 12 10 10 18 22 19 18 20 20 19
9 5 4 13 20 23 24 18 10 7 3 1 3 2 1 2 3 3 4 4 2 3 3 4 4 5 5 4 4 5 4 4 6 6 3 6 6 3 7 10 10 10 7 4 3 3 2 3 5 2 1 2 3 3 3 4 4 4 4 5 6 4 4 3 1 1 2 3 4 4 3 7 6 3 5 6 5 10 16 17 17 22 23 19 18 19 19 18
4 3 5 13 17 24 25 12 2 2 3 2 4 3 3 3 3 3 3 3 3 3 3 4 3 3 4 4 3 5 6 4 5 6 4 6 7 3 6 11 16 17 11 4 3 3 3 4 5 2 3 3 3 3 2 3 1 2 2 3 5 4 5 6 5 3 2 2 2 3 1 7 6 3 5 6 6 12 17 18 21 24 21 17 17 18 17 17
3 3 4 13 16 21 19 5 0 3 1 2 4 4 4 3 3 3 2 2 2 2 2 2 2 2 3 3 4 6 8 5 5 7 3 3 4 2 5 15 19 16 9 3 3 4 3 4 4 1 2 2 4 4 1 0 1 1 3 2 4 3 3 5 5 4 4 4 3 3 2 6 6 4 5 7 6 10 13 15 22 25 20 16 16 17 16 15
5 4 3 11 13 14 11 3 3 6 2 2 4 3 3 2 2 3 3 1 2 2 3 2 1 2 2 3 5 7 8 5 5 6 2 2 4 1 7 18 20 12 7 6 8 9 5 2 5 3 2 3 4 4 3 3 1 3 3 2 4 4 6 4 2 4 2 5 7 5 4 7 5 5 4 2 5 9 11 15 20 22 18 15 15 16 15 14
7 4 2 7 9 7 4 1 2 5 4 5 5 3 3 3 2 3 4 3 2 3 3 2 1 3 3 3 4 4 6 3 3 5 3 1 1 2 4 14 16 10 4 5 11 14 7 2 5 6 5 5 5 4 4 3 3 2 2 4 6 6 8 5 3 4 3 4 6 6 5 5 5 4 4 2 6 7 10 13 16 19 18 14 14 15 14 13
5 2 2 3 4 3 1 2 3 4 5 7 5 3 4 3 1 2 5 3 2 3 4 2 2 4 3 3 5 4 6 1 2 4 4 3 2 2 1 7 11 7 2 5 16 15 4 1 6 7 9 11 8 6 4 5 6 4 4 7 7 7 8 6 5 4 5 3 4 6 5 4 5 3 1 6 8 7 9 13 17 20 17 13 13 14 13 12
2 1 2 3 2 2 1 2 3 1 3 7 5 3 5 4 2 2 2 1 3 4 3 2 2 3 3 6 5 4 5 2 2 3 3 3 2 2 3 3 7 6 3 7 16 11 3 3 7 8 11 8 5 6 5 7 9 8 8 9 8 8 9 8 7 8 6 6 7 8 7 6 7 6 7 10 8 6 10 16 21 22 17 12 12 13 12 12
2 2 3 3 2 1 1 4 6 2 1 3 3 4 6 5 4 3 1 1 1 3 2 2 0 2 5 7 5 4 5 3 1 2 2 2 2 2 3 3 2 5 3 5 9 6 4 6 7 6 9 5 2 4 5 7 7 8 10 12 12 12 12 12 14 11 9 8 11 7 11 10 9 8 9 13 14 15 19 22 23 22 15 10 12 13 13 13
3 4 3 4 3 1 3 7 10 5 2 3 2 3 8 8 6 4 2 2 1 2 2 3 3 3 4 4 4 5 6 5 4 4 3 3 3 3 2 1 1 3 4 4 4 3 3 4 4 6 8 5 1 1 3 5 5 5 10 13 13 15 16 17 18 15 12 12 8 7 11 12 9 8 12 19 22 20 19 20 21 20 15 11 13 14 13 13
3 3 4 5 5 4 4 9 11 7 3 3 2 2 6 10 9 4 1 3 3 2 2 4 4 4 4 3 4 3 6 7 6 6 6 6 3 3 3 4 3 2 3 4 2 2 3 3 3 6 5 4 1 1 2 4 4 4 6 8 10 14 15 17 18 13 10 11 5 6 7 10 6 7 14 22 21 14 14 19 21 19 15 13 16 16 14 13
5 4 6 6 4 2 3 4 6 6 3 4 4 2 4 8 8 5 1 1 4 5 5 7 5 4 4 4 4 2 5 5 5 10 12 9 7 6 4 4 7 6 4 4 3 2 4 2 2 5 4 5 3 2 4 5 5 1 3 8 12 13 13 14 12 8 9 12 8 5 7 9 5 8 13 14 14 14 16 20 20 17 15 16 18 18 15 13
6 5 6 6 2 1 2 2 3 4 3 4 4 2 3 4 5 6 3 1 2 6 10 12 9 5 3 3 4 4 6 7 9 11 12 9 9 9 6 7 11 9 6 5 3 2 5 5 2 4 6 4 4 2 6 7 4 3 8 12 16 14 11 7 5 6 11 12 9 8 11 8 7 11 10 7 8 14 19 23 23 19 17 18 18 17 16 15
Wind_Direction
204 194 191 193 189 190 195 192 187 189 189 187 186 186 185 183 182 183 183 185 188 190 195 200 201 199 198 205 217 219 220 223 229 237 236 238 234 229 223 207 203 192 183 187 192 185 172 165 160 156 158 157 153 151 141 140 143 131 107 87 131 178 190 184 180 188 162 169 188 177 177 167 156 186 183 192 212 240 219 211 213 202 193 177 156 149 177 181
193 192 194 195 190 189 189 188 186 185 185 185 184 184 184 182 182 182 183 185 187 190 194 200 199 197 197 200 209 215 220 225 233 240 236 234 231 224 215 197 197 192 184 190 193 185 175 166 158 156 157 152 141 149 147 141 138 112 100 107 192 202 200 188 181 182 156 70 167 170 177 174 165 170 175 195 218 219 223 223 223 215 209 205 202 183 186 187
190 192 196 198 190 185 188 189 184 181 183 184 183 183 183 183 183 182 183 184 187 191 192 196 197 196 197 199 206 212 220 228 237 241 233 225 225 216 202 191 189 189 190 194 192 186 180 169 159 157 156 144 134 153 149 139 149 111 108 117 233 211 194 192 189 188 185 101 155 164 173 174 169 168 176 196 222 221 228 227 223 221 213 203 205 201 195 193
192 193 196 200 191 184 189 187 181 182 183 184 183 183 184 184 184 183 183 185 188 189 190 192 195 196 197 200 203 207 217 233 242 240 227 216 219 205 189 186 183 187 193 192 188 184 176 166 159 157 150 126 124 152 147 140 167 141 124 162 219 179 137 178 194 205 206 175 162 162 159 173 183 178 181 177 172 255 246 238 232 232 219 199 200 200 199 196
194 196 200 202 191 186 188 183 181 183 183 184 184 184 185 184 184 184 184 187 188 187 188 192 195 196 196 197 198 199 203 227 247 235 220 211 209 195 184 183 184 188 189 189 185 176 169 163 158 152 140 115 121 139 147 142 143 128 113 209 159 138 119 165 184 194 190 167 162 157 151 180 182 183 193 183 185 234 260 259 247 247 237 218 210 204 201 199
195 197 203 204 194 189 186 182 182 184 185 186 186 186 185 184 185 185 186 187 187 186 189 193 194 195 194 193 193 194 195 200 260 218 207 204 198 189 184 185 189 189 186 186 179 170 164 161 157 148 127 104 127 135 155 155 146 142 328 143 133 104 90 138 192 178 177 171 166 165 168 181 173 181 202 204 219 228 262 302 266 257 242 230 226 215 210 202
195 196 202 205 200 192 183 180 182 183 186 187 187 187 185 185 186 187 187 186 185 186 190 193 194 194 192 189 188 195 206 218 280 194 192 194 189 184 186 190 191 188 183 180 177 170 165 163 158 148 125 97 143 139 145 151 141 124 112 163 140 84 68 79 156 147 159 176 172 169 172 179 179 186 207 223 234 234 244 259 273 287 250 231 229 227 224 212
195 197 201 202 198 191 182 178 180 182 186 188 188 187 186 186 187 186 185 184 184 186 189 191 192 193 190 186 188 194 211 219 257 190 184 184 184 182 186 191 188 184 180 180 181 173 168 165 157 150 130 112 155 147 143 140 76 90 134 159 133 100 86 75 111 133 127 155 159 159 163 186 201 202 232 243 246 243 246 251 255 272 270 238 230 232 230 220
195 198 200 196 191 188 181 177 179 182 183 185 185 184 184 184 184 184 183 183 183 184 187 189 190 191 186 188 191 192 215 216 234 216 184 180 182 183 187 189 185 182 177 178 182 178 173 166 160 161 156 148 147 144 151 151 261 166 137 139 127 100 100 94 103 121 117 135 154 158 134 147 196 227 260 256 260 257 251 252 251 253 264 252 234 232 233 226
196 199 199 193 189 187 181 176 178 181 180 182 183 182 182 181 181 182 182 182 181 182 186 188 189 188 185 188 186 187 221 218 230 228 186 180 182 186 189 187 183 181 177 176 178 181 178 171 165 158 149 148 142 139 153 155 179 148 125 111 104 92 94 104 109 111 114 116 144 171 146 120 155 203 258 245 264 270 250 245 247 246 252 256 241 231 232 232
198 200 198 194 190 186 181 177 178 179 180 181 181 181 180 180 180 181 181 179 179 182 185 187 188 187 188 190 185 190 217 215 223 218 187 180 182 186 189 186 183 180 179 177 173 176 179 173 162 148 146 154 140 123 132 131 132 135 125 100 64 76 82 68 95 103 107 104 89 142 140 100 126 195 241 225 246 294 259 235 238 240 241 248 245 233 230 232
203 203 199 195 191 186 181 178 178 179 180 180 181 181 179 179 179 180 179 176 176 181 185 186 187 189 188 190 198 204 210 209 212 206 189 183 180 184 186 182 181 178 180 181 174 169 169 169 161 145 144 152 139 110 126 128 125 122 119 109 5 24 58 31 41 55 68 98 75 96 75 295 223 229 241 236 244 263 265 240 235 234 235 239 243 237 232 233
203 204 199 194 191 187 182 179 178 179 180 181 181 180 178 177 177 179 177 174 175 180 184 185 186 190 185 187 207 211 213 215 210 200 188 186 182 183 182 179 179 177 177 180 177 167 159 169 171 143 136 145 132 121 132 115 115 110 81 109 33 15 4 3 23 21 79 105 124 115 286 279 263 253 243 240 238 239 249 246 239 234 233 237 241 242 236 233
197 199 196 191 187 185 183 180 178 179 182 182 182 180 178 176 176 177 174 171 175 179 181 184 185 187 185 188 210 213 218 222 214 199 186 184 183 179 177 176 176 175 171 169 173 166 155 167 173 142 129 137 124 119 114 62 79 99 59 64 63 128 264 331 16 19 122 144 147 124 189 265 270 281 248 239 243 244 251 249 249 244 236 237 240 243 242 239
194 193 191 189 185 183 183 179 177 180 183 185 183 180 178 176 176 175 171 170 175 177 179 182 183 181 184 198 214 214 217 219 212 195 183 180 181 177 172 170 171 169 164 159 162 158 151 162 160 129 114 126 126 115 71 25 35 36 102 336 353 164 253 320 13 27 107 177 95 118 204 274 271 277 250 214 230 241 257 256 256 253 245 242 242 244 247 246
192 191 190 189 184 182 182 178 177 180 184 187 184 181 179 175 175 173 168 168 171 174 176 178 180 175 171 201 212 209 207 208 200 187 180 176 178 177 166 162 163 161 158 155 155 151 148 153 135 114 115 126 125 105 70 51 6 360 101 173 239 169 258 313 11 14 24 187 10 91 210 271 281 265 177 145 170 330 297 276 262 256 255 250 248 248 249 249
187 190 192 191 187 183 182 180 177 179 184 186 183 179 177 173 172 169 162 161 166 168 172 174 173 174 179 207 203 202 198 195 187 180 177 173 175 177 165 156 155 157 157 153 152 148 145 140 126 117 110 108 105 101 96 53 262 280 49 111 209 189 195 286 292 350 13 108 264 22 224 246 265 272 263 253 278 297 294 288 281 272 266 260 256 252 250 250
181 186 191 192 190 185 184 182 177 179 184 181 177 174 171 169 167 163 155 155 155 151 159 165 160 165 224 214 201 197 193 187 177 172 172 172 170 172 166 155 153 155 149 143 146 146 135 117 120 123 52 63 122 119 137 203 184 173 156 133 198 223 207 242 238 313 12 51 255 350 271 263 275 284 281 278 283 284 282 283 283 280 273 267 261 256 253 252
179 184 188 190 191 187 185 183 177 178 179 172 168 164 158 156 152 153 155 154 151 143 156 171 164 146 241 197 193 190 183 176 172 168 168 167 162 167 165 154 155 153 142 133 140 141 125 99 103 126 123 155 188 161 168 190 160 158 160 143 157 178 226 241 240 277 19 80 262 252 249 275 285 292 287 286 287 279 279 281 279 278 275 270 264 258 255 254
184 184 185 187 192 190 185 181 177 174 172 169 165 156 148 147 136 146 161 158 155 138 131 174 172 150 37 175 180 174 165 165 169 166 164 165 161 162 157 150 152 145 137 139 147 135 115 123 152 176 181 180 176 146 136 137 122 131 126 108 146 160 225 245 257 302 70 138 250 252 267 282 277 277 279 283 289 275 273 275 276 277 275 272 267 261 259 258
193 188 183 185 191 192 186 178 174 170 169 170 168 161 159 160 151 163 162 152 153 134 108 171 176 180 62 163 168 161 153 155 166 165 163 165 161 158 154 152 143 119 140 129 118 107 102 149 204 211 182 156 139 122 109 96 86 98 122 125 142 177 206 242 256 322 25 145 241 347 324 281 270 268 271 278 282 269 270 271 276 280 275 272 269 268 267 265
201 191 182 185 188 192 189 176 169 169 168 170 171 170 173 171 170 170 161 133 138 134 93 170 180 187 116 156 160 155 150 140 158 166 164 163 164 166 162 149 127 124 190 113 107 102 120 195 231 197 140 109 89 93 97 89 86 86 110 128 148 209 216 288 296 335 14 107 259 345 338 282 272 271 273 278 273 271 279 277 277 280 277 277 276 275 273 267
204 192 183 186 186 190 187 175 168 168 171 172 172 171 172 173 172 166 158 123 133 133 76 166 182 188 144 154 163 159 153 137 157 168 166 166 168 169 159 139 114 133 157 156 143 140 164 247 232 162 138 112 82 79 96 87 82 91 111 132 175 228 157 204 265 329 9 77 264 286 303 285 293 304 294 292 283 289 303 292 284 286 285 289 289 282 278 272
210 199 196 192 187 190 182 172 168 170 175 173 169 168 171 171 163 156 145 96 118 121 104 158 181 188 165 158 170 170 156 145 160 168 169 171 166 158 155 138 119 134 157 162 143 140 177 279 161 141 130 119 111 102 114 105 72 64 144 142 167 193 170 192 207 343 356 31 26 42 337 297 328 340 300 312 336 336 360 19 27 24 344 318 307 290 279 277
215 210 208 200 194 187 175 169 170 172 175 171 167 167 169 169 159 153 134 75 109 88 120 149 170 185 184 172 176 172 152 142 158 166 171 173 163 149 144 134 131 157 173 137 120 134 194 298 142 133 104 117 123 146 167 139 113 215 210 175 170 166 153 141 93 70 46 10 356 32 17 291 321 325 272 305 346 340 7 37 46 46 45 41 27 7 295 275
214 215 212 205 196 180 169 172 173 172 172 171 168 165 167 167 158 156 132 63 141 181 150 161 156 178 187 174 166 158 144 152 164 169 172 172 168 154 140 120 90 147 169 138 119 144 155 86 122 127 126 126 128 172 198 149 125 173 221 169 146 131 125 129 117 87 97 206 328 45 115 252 316 312 269 310 340 328 351 26 36 41 46 51 58 70 85 94
209 209 207 201 189 176 171 175 175 171 170 172 171 165 166 164 158 161 120 47 222 170 143 165 160 172 179 165 159 153 150 165 156 168 173 169 172 159 154 157 72 125 168 132 131 189 115 108 82 102 116 122 140 187 208 147 131 188 210 131 127 122 128 139 113 94 168 213 325 19 94 185 301 280 275 317 350 344 353 4 20 35 45 52 64 78 89 94
193 192 191 186 180 175 173 177 176 171 168 169 169 166 163 160 160 157 103 91 196 140 134 164 155 163 167 161 161 150 135 146 140 172 175 166 170 153 151 181 133 126 120 123 173 265 96 157 171 134 115 138 177 223 196 138 112 236 195 122 124 120 121 120 96 94 36 42 295 334 37 148 265 275 305 348 18 338 348 354 6 25 42 56 70 80 87 91
178 177 173 170 169 171 175 182 178 170 164 163 165 165 161 158 156 123 87 155 147 108 132 149 147 160 158 153 155 123 123 140 124 160 164 159 169 149 117 150 131 107 49 79 153 215 51 179 184 146 132 173 192 324 203 131 105 169 147 99 85 76 80 83 86 103 53 47 233 286 15 157 265 284 307 1 79 242 262 307 350 29 52 65 76 83 87 89
158 158 158 159 163 171 179 181 176 168 160 160 161 160 157 154 144 102 156 195 136 109 133 143 156 161 148 137 94 70 106 101 104 133 140 134 141 123 108 122 117 102 42 41 88 210 328 103 132 117 134 155 136 63 30 59 129 139 121 81 70 42 39 53 51 83 68 326 248 264 322 122 272 284 262 227 204 190 179 148 9 48 67 76 83 87 89 90
149 151 154 159 163 174 180 173 171 168 162 159 155 154 152 140 108 136 181 176 117 104 117 135 160 151 154 152 129 116 75 41 124 135 135 109 112 113 111 116 96 79 46 42 50 338 5 73 42 79 126 127 110 65 39 60 114 117 97 98 86 13 10 28 0 42 96 251 260 274 300 160 214 266 277 267 261 206 160 127 69 54 70 80 86 89 90 92
155 159 163 164 165 173 181 173 168 166 163 158 152 153 146 105 165 184 173 147 140 183 173 167 195 165 162 145 114 145 107 79 169 141 140 134 128 143 143 163 147 97 125 172 113 360 41 83 314 64 150 155 119 82 45 8 34 77 107 115 98 21 16 12 315 352 192 237 272 286 270 201 231 250 263 268 261 227 201 170 75 58 81 87 89 91 91 92
162 163 164 169 170 172 177 170 165 165 163 158 155 152 121 113 194 187 155 176 187 183 150 139 142 151 152 137 135 165 107 118 190 140 127 133 139 178 240 181 141 118 178 173 128 104 37 305 307 96 210 219 157 123 137 255 223 135 142 135 132 118 93 234 259 290 248 251 288 282 266 243 266 265 240 235 237 226 224 232 282 78 96 96 97 94 91 92
168 163 160 167 170 170 172 167 163 163 162 158 156 143 105 173 194 126 147 205 285 46 82 113 121 130 143 142 178 177 99 88 174 115 88 119 140 186 226 225 153 98 107 140 148 160 165 264 229 160 203 199 180 159 152 140 131 178 171 127 147 156 145 195 211 188 219 256 297 292 266 186 209 257 223 230 254 252 226 214 188 149 121 112 107 98 94 94
168 165 161 163 168 170 170 167 162 161 163 159 150 145 169 188 196 131 161 190 197 67 53 96 122 131 139 51 202 196 125 145 169 114 135 162 169 188 188 199 196 136 125 154 193 170 162 236 263 303 305 148 163 214 132 107 108 238 118 106 163 183 137 137 174 170 165 134 298 259 234 216 214 267 276 275 278 258 195 193 175 152 138 126 114 102 98 97
163 163 163 164 169 169 169 171 166 162 165 159 144 186 196 191 186 176 161 147 148 132 106 94 103 126 149 72 206 229 145 109 151 140 176 190 200 197 188 194 191 177 159 154 160 165 156 245 320 352 16 60 108 215 96 102 161 160 117 167 209 158 114 114 151 57 85 144 258 219 242 293 309 272 305 324 174 100 130 181 175 156 144 131 115 103 101 99
161 163 166 166 168 167 170 174 170 167 169 164 168 194 195 124 176 170 135 128 141 137 127 138 159 142 160 165 189 198 175 117 149 163 178 192 229 195 193 215 187 186 197 149 157 200 152 122 341 28 74 15 27 93 62 41 88 123 170 195 177 114 98 110 123 21 45 213 276 291 227 287 298 232 322 79 162 154 103 170 167 155 145 133 117 106 103 99
159 157 159 166 169 167 169 173 172 171 170 170 189 189 116 101 201 178 139 135 137 137 137 157 166 147 166 177 184 181 175 165 168 173 168 191 243 194 177 195 187 188 196 155 112 187 129 106 337 20 122 307 352 90 87 25 37 105 173 161 116 131 162 106 127 140 108 217 276 308 276 254 207 216 254 184 185 195 183 170 159 155 148 137 122 111 107 103
161 147 140 158 166 167 170 171 170 168 165 182 196 189 129 141 210 273 151 141 129 129 153 171 157 107 170 173 165 169 182 178 166 174 176 186 235 203 176 179 182 186 185 158 137 169 112 115 209 320 314 286 3 91 179 192 25 48 114 125 77 124 161 158 146 159 167 184 239 313 325 254 228 213 198 198 195 178 165 166 166 159 151 139 126 116 111 106
159 144 121 150 159 164 169 164 162 165 171 200 183 169 222 143 122 131 147 149 124 104 163 183 151 141 163 163 154 166 183 175 167 181 196 184 204 229 196 180 152 164 164 125 116 152 92 117 158 325 327 221 171 216 195 177 143 106 136 164 174 75 117 157 89 112 139 152 177 233 293 266 246 212 198 202 194 177 167 162 171 164 151 138 126 121 115 110
145 129 132 154 155 159 162 157 159 171 170 165 143 137 187 147 131 132 129 129 89 61 127 146 136 147 150 149 164 166 156 153 171 185 203 196 199 225 210 185 155 149 143 100 128 160 118 126 141 138 232 191 217 258 215 185 174 162 176 184 173 141 122 147 237 271 119 133 164 166 244 270 255 205 212 217 195 190 180 165 164 165 153 136 128 126 120 114
131 85 146 160 159 159 158 154 153 140 117 149 147 125 141 133 120 139 127 101 80 58 81 99 105 137 146 151 152 152 152 154 181 190 201 211 204 201 201 180 159 154 150 129 164 157 113 106 113 150 206 204 258 284 218 219 225 128 198 196 159 152 134 146 201 224 124 115 143 123 231 272 263 210 225 249 216 189 183 169 160 160 151 133 129 131 124 119
140 41 137 160 162 160 157 151 80 134 100 172 138 89 111 127 107 132 139 91 86 68 65 88 125 140 157 161 137 156 169 164 185 196 200 208 200 206 184 167 159 156 149 138 164 147 122 105 101 57 307 313 318 335 20 267 64 153 234 190 153 180 144 143 180 169 138 165 145 87 281 268 276 270 262 265 221 179 177 170 161 159 149 134 133 134 129 127
137 58 116 165 169 164 163 187 189 164 144 130 115 75 93 105 97 127 144 158 141 116 109 130 161 132 155 149 134 168 182 176 198 204 189 177 188 199 175 169 165 163 165 182 179 170 173 146 122 115 27 1 347 348 333 304 228 202 227 184 159 124 94 102 124 98 124 201 159 144 235 253 273 310 323 276 186 171 172 170 167 163 151 139 140 138 134 137
133 82 111 182 187 175 158 98 141 149 141 132 128 130 117 66 48 131 131 127 133 129 126 148 145 107 118 123 101 152 178 158 175 185 163 181 198 33 163 180 179 173 179 193 168 161 167 175 151 147 158 185 202 212 220 215 187 205 211 180 177 146 139 151 112 108 221 221 160 167 225 256 281 334 9 139 167 173 177 174 174 169 155 143 145 145 141 144
145 117 130 176 201 198 112 81 111 126 150 149 143 161 143 107 38 124 114 113 127 112 95 103 138 96 91 133 117 157 190 123 64 158 160 168 207 356 86 184 189 179 146 163 160 152 132 226 185 182 195 199 195 197 180 128 143 188 187 174 177 170 163 135 106 171 200 152 181 217 193 197 254 288 238 185 182 188 188 183 183 177 164 151 150 152 151 152
143 181 156 117 141 170 108 155 167 118 157 165 163 172 151 131 133 122 96 130 174 145 79 46 132 128 155 162 143 166 186 134 68 136 139 147 181 346 42 133 177 181 136 153 163 146 90 209 200 200 214 210 171 178 172 138 163 182 167 167 175 173 161 150 185 206 145 126 236 233 171 186 236 231 209 197 189 205 204 191 186 180 170 161 158 162 168 169
122 140 152 136 148 152 93 177 180 160 158 167 147 150 155 148 150 158 150 22 143 170 123 51 149 179 172 167 152 153 158 137 153 165 121 132 142 68 43 57 144 179 143 145 167 141 119 201 203 192 212 217 114 170 179 155 167 171 168 175 175 172 172 184 210 207 151 185 239 195 163 205 224 210 211 199 191 198 198 190 184 181 179 176 171 173 179 183
110 113 121 128 129 80 89 149 160 159 169 162 132 152 169 172 170 165 135 85 64 240 157 147 213 204 170 155 130 147 167 164 184 204 167 150 145 114 109 90 161 186 147 131 171 156 146 201 188 167 205 221 126 176 179 149 149 165 183 184 174 179 186 195 213 210 187 214 233 151 179 221 213 198 209 203 198 195 189 185 184 187 192 187 181 184 185 186
115 124 130 117 95 79 112 145 154 159 169 169 174 185 175 179 179 172 132 133 159 220 151 162 196 170 143 130 107 144 198 176 169 193 175 153 168 176 171 175 168 165 153 142 163 179 180 210 156 135 192 245 299 105 125 120 136 171 194 192 183 190 196 204 216 210 198 227 225 138 209 246 229 211 214 207 202 189 183 191 191 193 197 190 188 191 189 187
118 110 128 127 92 91 137 144 148 154 169 181 185 173 174 190 183 157 116 140 159 171 164 161 164 133 106 106 104 140 208 187 172 183 174 161 170 180 195 187 159 146 162 163 146 155 168 185 64 105 171 251 315 107 121 82 64 59 233 208 196 198 202 209 215 188 186 217 207 167 239 252 210 204 218 212 197 185 191 197 195 198 201 196 196 195 191 192
132 108 124 136 105 88 132 119 142 157 170 175 174 152 154 182 170 150 158 233 143 168 176 170 156 125 114 154 168 153 134 110 104 131 140 126 123 130 129 149 153 152 162 156 127 136 150 145 120 135 176 252 316 115 125 91 71 271 249 210 197 203 204 202 225 217 204 204 190 197 234 234 168 182 208 214 193 196 201 199 200 207 207 200 201 198 193 193